Time,TemperatureF,DewpointF,PressureIn,WindDirection,WindDirectionDegrees,WindSpeedMPH,WindSpeedGustMPH,Humidity,HourlyPrecipIn,Conditions,Clouds,dailyrainin,SoftwareType,DateUTC
2013-07-08 00:00:00,72.5,59.2,29.38,NNE,24,0.0,0.0,63,0.00,,,0.00,VWS V14.01,2013-07-08 04:00:00,
2013-07-08 00:01:00,72.5,59.2,29.38,NNE,24,0.0,0.0,63,0.00,,,0.00,VWS V14.01,2013-07-08 04:01:00,
2013-07-08 00:06:00,72.7,59.4,29.38,NNE,24,0.0,0.0,63,0.00,,,0.00,VWS V14.01,2013-07-08 04:06:00,
2013-07-08 00:11:00,72.5,59.2,29.38,NE,39,0.0,0.0,63,0.00,,,0.00,VWS V14.01,2013-07-08 04:11:00,
2013-07-08 00:16:00,72.5,59.2,29.38,NE,42,0.0,0.0,63,0.00,,,0.00,VWS V14.01,2013-07-08 04:16:00,
2013-07-08 00:21:00,72.3,59.0,29.35,NNW,330,0.0,0.0,63,0.00,,,0.00,VWS V14.01,2013-07-08 04:21:00,
2013-07-08 00:26:00,72.5,59.2,29.35,NW,309,0.0,0.0,63,0.00,,,0.00,VWS V14.01,2013-07-08 04:26:00,
2013-07-08 00:31:00,72.3,59.0,29.35,NNW,334,0.0,0.0,63,0.00,,,0.00,VWS V14.01,2013-07-08 04:31:00,
2013-07-08 00:36:00,72.3,59.5,29.38,NNW,334,0.0,0.0,64,0.00,,,0.00,VWS V14.01,2013-07-08 04:36:00,
2013-07-08 00:41:00,72.3,59.5,29.38,NNW,332,0.0,0.0,64,0.00,,,0.00,VWS V14.01,2013-07-08 04:41:00,
2013-07-08 00:46:00,72.3,59.5,29.38,West,262,0.0,0.0,64,0.00,,,0.00,VWS V14.01,2013-07-08 04:46:00,
2013-07-08 00:51:00,72.3,59.5,29.38,WNW,299,0.0,0.0,64,0.00,,,0.00,VWS V14.01,2013-07-08 04:51:00,
2013-07-08 00:56:00,72.3,59.5,29.38,NW,321,0.0,0.0,64,0.00,,,0.00,VWS V14.01,2013-07-08 04:56:00,
2013-07-08 01:01:00,72.3,59.5,29.38,NW,325,0.0,0.0,64,0.00,,,0.00,VWS V14.01,2013-07-08 05:01:00,
2013-07-08 01:06:00,72.3,59.9,29.38,NW,314,0.0,0.0,65,0.00,,,0.00,VWS V14.01,2013-07-08 05:06:00,
2013-07-08 01:11:00,72.3,59.9,29.38,NW,314,0.0,0.0,65,0.00,,,0.00,VWS V14.01,2013-07-08 05:11:00,
2013-07-08 01:16:00,72.3,59.9,29.38,NNW,334,0.0,0.0,65,0.00,,,0.00,VWS V14.01,2013-07-08 05:16:00,
2013-07-08 01:21:00,72.3,59.9,29.38,WNW,289,0.0,0.0,65,0.00,,,0.00,VWS V14.01,2013-07-08 05:21:00,
2013-07-08 01:26:00,72.3,59.9,29.38,NNW,328,0.0,0.0,65,0.00,,,0.00,VWS V14.01,2013-07-08 05:26:00,
2013-07-08 01:31:00,72.1,59.7,29.38,North,350,0.0,0.0,65,0.00,,,0.00,VWS V14.01,2013-07-08 05:31:00,
2013-07-08 01:36:00,72.0,59.6,29.38,NNW,343,0.0,0.0,65,0.00,,,0.00,VWS V14.01,2013-07-08 05:36:00,
2013-07-08 01:41:00,72.0,59.6,29.38,NNW,340,0.0,2.2,65,0.00,,,0.00,VWS V14.01,2013-07-08 05:41:00,
2013-07-08 01:46:00,72.0,59.6,29.38,NNW,342,0.0,0.0,65,0.00,,,0.00,VWS V14.01,2013-07-08 05:46:00,
2013-07-08 01:51:00,72.0,59.6,29.35,NW,320,0.0,0.0,65,0.00,,,0.00,VWS V14.01,2013-07-08 05:51:00,
2013-07-08 01:56:00,72.0,59.6,29.35,ENE,70,0.0,0.0,65,0.00,,,0.00,VWS V14.01,2013-07-08 05:56:00,
2013-07-08 02:01:00,72.0,59.6,29.35,NNW,342,0.0,0.0,65,0.00,,,0.00,VWS V14.01,2013-07-08 06:01:00,
2013-07-08 02:06:00,72.0,60.0,29.35,NW,324,0.0,0.0,66,0.00,,,0.00,VWS V14.01,2013-07-08 06:06:00,
2013-07-08 02:11:00,71.8,59.8,29.35,West,267,0.0,0.0,66,0.00,,,0.00,VWS V14.01,2013-07-08 06:11:00,
2013-07-08 02:16:00,71.8,59.8,29.35,North,357,0.0,0.0,66,0.00,,,0.00,VWS V14.01,2013-07-08 06:16:00,
2013-07-08 02:21:00,71.8,59.8,29.35,WNW,286,0.0,0.0,66,0.00,,,0.00,VWS V14.01,2013-07-08 06:21:00,
2013-07-08 02:26:00,71.8,59.8,29.35,East,93,0.0,0.0,66,0.00,,,0.00,VWS V14.01,2013-07-08 06:26:00,
2013-07-08 02:31:00,71.6,59.7,29.35,North,357,0.0,0.0,66,0.00,,,0.00,VWS V14.01,2013-07-08 06:31:00,
2013-07-08 02:36:00,71.6,59.7,29.35,NNE,31,0.0,0.0,66,0.00,,,0.00,VWS V14.01,2013-07-08 06:36:00,
2013-07-08 02:41:00,71.4,59.5,29.35,NNE,30,0.0,0.0,66,0.00,,,0.00,VWS V14.01,2013-07-08 06:41:00,
2013-07-08 02:46:00,71.4,59.5,29.35,NNE,14,0.0,0.0,66,0.00,,,0.00,VWS V14.01,2013-07-08 06:46:00,
2013-07-08 02:51:00,71.4,59.5,29.38,North,353,0.0,0.0,66,0.00,,,0.00,VWS V14.01,2013-07-08 06:51:00,
2013-07-08 02:56:00,71.6,59.7,29.38,NE,43,0.0,0.0,66,0.00,,,0.00,VWS V14.01,2013-07-08 06:56:00,
2013-07-08 03:01:00,71.4,59.9,29.38,NNW,344,0.0,0.0,67,0.00,,,0.00,VWS V14.01,2013-07-08 07:01:00,
2013-07-08 03:06:00,71.6,59.7,29.38,NNW,336,0.0,0.0,66,0.00,,,0.00,VWS V14.01,2013-07-08 07:06:00,
2013-07-08 03:11:00,71.4,59.9,29.38,North,357,0.0,3.1,67,0.00,,,0.00,VWS V14.01,2013-07-08 07:11:00,
2013-07-08 03:16:00,71.4,59.9,29.38,NW,318,0.0,0.0,67,0.00,,,0.00,VWS V14.01,2013-07-08 07:16:00,
2013-07-08 03:21:00,71.4,59.9,29.38,NW,320,0.0,0.0,67,0.00,,,0.00,VWS V14.01,2013-07-08 07:21:00,
2013-07-08 03:26:00,71.4,59.9,29.38,NW,322,0.0,0.0,67,0.00,,,0.00,VWS V14.01,2013-07-08 07:26:00,
2013-07-08 03:31:00,71.2,59.7,29.38,WNW,290,0.0,2.2,67,0.00,,,0.00,VWS V14.01,2013-07-08 07:31:00,
2013-07-08 03:37:00,71.2,59.7,29.38,NNW,342,0.0,0.0,67,0.00,,,0.00,VWS V14.01,2013-07-08 07:37:00,
2013-07-08 03:42:00,71.1,59.6,29.38,NNE,24,0.0,0.0,67,0.00,,,0.00,VWS V14.01,2013-07-08 07:42:00,
2013-07-08 03:47:00,71.1,59.6,29.38,NW,322,0.0,4.0,67,0.00,,,0.00,VWS V14.01,2013-07-08 07:47:00,
2013-07-08 03:52:00,70.9,59.4,29.38,NNW,342,0.0,0.0,67,0.00,,,0.00,VWS V14.01,2013-07-08 07:52:00,
2013-07-08 03:57:00,70.9,59.4,29.38,NNW,348,3.1,3.1,67,0.00,,,0.00,VWS V14.01,2013-07-08 07:57:00,
2013-07-08 04:02:00,70.9,59.4,29.38,NNW,335,0.0,0.0,67,0.00,,,0.00,VWS V14.01,2013-07-08 08:02:00,
2013-07-08 04:07:00,70.9,59.4,29.38,NNW,335,0.0,0.0,67,0.00,,,0.00,VWS V14.01,2013-07-08 08:07:00,
2013-07-08 04:12:00,70.9,59.8,29.38,North,0,0.0,0.0,68,0.00,,,0.00,VWS V14.01,2013-07-08 08:12:00,
2013-07-08 04:17:00,70.9,59.8,29.38,NNE,21,0.0,0.0,68,0.00,,,0.00,VWS V14.01,2013-07-08 08:17:00,
2013-07-08 04:22:00,70.9,59.8,29.38,NNE,21,0.0,0.0,68,0.00,,,0.00,VWS V14.01,2013-07-08 08:22:00,
2013-07-08 04:27:00,70.9,59.8,29.38,North,350,0.0,0.0,68,0.00,,,0.00,VWS V14.01,2013-07-08 08:27:00,
2013-07-08 04:32:00,70.9,59.8,29.38,North,350,0.0,0.0,68,0.00,,,0.00,VWS V14.01,2013-07-08 08:32:00,
2013-07-08 04:37:00,70.9,59.4,29.38,North,350,0.0,0.0,67,0.00,,,0.00,VWS V14.01,2013-07-08 08:37:00,
2013-07-08 04:42:00,70.7,59.2,29.38,North,350,0.0,0.0,67,0.00,,,0.00,VWS V14.01,2013-07-08 08:42:00,
2013-07-08 04:47:00,70.7,59.2,29.38,NNW,335,0.0,0.0,67,0.00,,,0.00,VWS V14.01,2013-07-08 08:47:00,
2013-07-08 04:52:00,70.7,59.2,29.38,WNW,301,0.0,0.0,67,0.00,,,0.00,VWS V14.01,2013-07-08 08:52:00,
2013-07-08 04:57:00,70.5,59.0,29.38,West,276,0.0,0.0,67,0.00,,,0.00,VWS V14.01,2013-07-08 08:57:00,
2013-07-08 05:02:00,70.5,59.0,29.38,NNW,346,0.0,0.0,67,0.00,,,0.00,VWS V14.01,2013-07-08 09:02:00,
2013-07-08 05:07:00,70.3,58.9,29.38,NW,319,0.0,0.0,67,0.00,,,0.00,VWS V14.01,2013-07-08 09:07:00,
2013-07-08 05:12:00,70.3,58.9,29.38,NNW,333,0.0,0.0,67,0.00,,,0.00,VWS V14.01,2013-07-08 09:12:00,
2013-07-08 05:17:00,70.3,58.9,29.38,North,353,0.0,0.0,67,0.00,,,0.00,VWS V14.01,2013-07-08 09:17:00,
2013-07-08 05:22:00,70.3,58.9,29.38,North,353,0.0,0.0,67,0.00,,,0.00,VWS V14.01,2013-07-08 09:22:00,
2013-07-08 05:27:00,70.2,58.7,29.38,North,353,0.0,0.0,67,0.00,,,0.00,VWS V14.01,2013-07-08 09:27:00,
2013-07-08 05:32:00,70.2,58.7,29.38,North,353,0.0,0.0,67,0.00,,,0.00,VWS V14.01,2013-07-08 09:32:00,
2013-07-08 05:37:00,70.2,58.7,29.38,North,353,0.0,0.0,67,0.00,,,0.00,VWS V14.01,2013-07-08 09:37:00,
2013-07-08 05:42:00,70.0,58.5,29.38,North,353,0.0,0.0,67,0.00,,,0.00,VWS V14.01,2013-07-08 09:42:00,
2013-07-08 05:47:00,70.0,59.0,29.38,North,353,0.0,0.0,68,0.00,,,0.00,VWS V14.01,2013-07-08 09:47:00,
2013-07-08 05:52:00,70.0,59.0,29.38,North,353,0.0,0.0,68,0.00,,,0.00,VWS V14.01,2013-07-08 09:52:00,
2013-07-08 05:57:00,70.0,59.0,29.38,North,353,0.0,0.0,68,0.00,,,0.00,VWS V14.01,2013-07-08 09:57:00,
2013-07-08 06:02:00,70.0,59.0,29.38,North,353,0.0,0.0,68,0.00,,,0.00,VWS V14.01,2013-07-08 10:02:00,
2013-07-08 06:07:00,70.0,59.0,29.38,North,353,0.0,0.0,68,0.00,,,0.00,VWS V14.01,2013-07-08 10:07:00,
2013-07-08 06:12:00,70.0,59.0,29.38,North,353,0.0,0.0,68,0.00,,,0.00,VWS V14.01,2013-07-08 10:12:00,
2013-07-08 06:17:00,70.0,59.0,29.38,North,353,0.0,0.0,68,0.00,,,0.00,VWS V14.01,2013-07-08 10:17:00,
2013-07-08 06:22:00,69.8,58.8,29.38,North,353,0.0,0.0,68,0.00,,,0.00,VWS V14.01,2013-07-08 10:22:00,
2013-07-08 06:27:00,69.8,58.8,29.38,North,353,0.0,0.0,68,0.00,,,0.00,VWS V14.01,2013-07-08 10:27:00,
2013-07-08 06:32:00,69.8,58.8,29.38,North,353,0.0,0.0,68,0.00,,,0.00,VWS V14.01,2013-07-08 10:32:00,
2013-07-08 06:37:00,69.8,58.8,29.38,North,353,0.0,0.0,68,0.00,,,0.00,VWS V14.01,2013-07-08 10:37:00,
2013-07-08 06:42:00,69.8,58.8,29.38,North,353,0.0,0.0,68,0.00,,,0.00,VWS V14.01,2013-07-08 10:42:00,
2013-07-08 06:47:00,69.8,58.8,29.38,North,353,0.0,0.0,68,0.00,,,0.00,VWS V14.01,2013-07-08 10:47:00,
2013-07-08 06:52:00,70.0,59.0,29.38,North,353,0.0,0.0,68,0.00,,,0.00,VWS V14.01,2013-07-08 10:52:00,
2013-07-08 06:57:00,70.2,59.1,29.38,North,353,0.0,0.0,68,0.00,,,0.00,VWS V14.01,2013-07-08 10:57:00,
2013-07-08 07:02:00,70.5,59.9,29.38,North,353,0.0,0.0,69,0.00,,,0.00,VWS V14.01,2013-07-08 11:02:00,
2013-07-08 07:07:00,70.9,60.2,29.41,North,353,0.0,0.0,69,0.00,,,0.00,VWS V14.01,2013-07-08 11:07:00,
2013-07-08 07:12:00,71.2,60.6,29.41,North,353,0.0,0.0,69,0.00,,,0.00,VWS V14.01,2013-07-08 11:12:00,
2013-07-08 07:17:00,71.8,61.1,29.41,North,353,0.0,0.0,69,0.00,,,0.00,VWS V14.01,2013-07-08 11:17:00,
2013-07-08 07:22:00,72.0,61.2,29.41,NNW,337,0.0,0.0,69,0.00,,,0.00,VWS V14.01,2013-07-08 11:22:00,
2013-07-08 07:27:00,72.1,61.0,29.41,ENE,78,0.0,0.0,68,0.00,,,0.00,VWS V14.01,2013-07-08 11:27:00,
2013-07-08 07:32:00,72.1,61.0,29.41,WNW,283,0.0,0.0,68,0.00,,,0.00,VWS V14.01,2013-07-08 11:32:00,
2013-07-08 07:37:00,72.3,61.2,29.41,WNW,283,0.0,0.0,68,0.00,,,0.00,VWS V14.01,2013-07-08 11:37:00,
2013-07-08 07:42:00,72.5,61.3,29.41,East,82,0.0,0.0,68,0.00,,,0.00,VWS V14.01,2013-07-08 11:42:00,
2013-07-08 07:47:00,72.5,61.3,29.41,NW,308,0.0,0.0,68,0.00,,,0.00,VWS V14.01,2013-07-08 11:47:00,
2013-07-08 07:52:00,72.5,60.9,29.41,North,357,0.0,0.0,67,0.00,,,0.00,VWS V14.01,2013-07-08 11:52:00,
2013-07-08 07:57:00,72.5,60.9,29.41,NNW,344,2.2,2.2,67,0.00,,,0.00,VWS V14.01,2013-07-08 11:57:00,
2013-07-08 08:02:00,72.5,60.9,29.41,NNW,329,0.0,0.0,67,0.00,,,0.00,VWS V14.01,2013-07-08 12:02:00,
2013-07-08 08:07:00,73.0,61.5,29.41,NNW,335,0.0,0.0,67,0.00,,,0.00,VWS V14.01,2013-07-08 12:07:00,
2013-07-08 08:12:00,73.6,62.0,29.41,NE,39,0.0,0.0,67,0.00,,,0.00,VWS V14.01,2013-07-08 12:12:00,
2013-07-08 08:17:00,74.3,62.6,29.41,NW,315,0.0,0.0,67,0.00,,,0.00,VWS V14.01,2013-07-08 12:17:00,
2013-07-08 08:22:00,75.0,63.3,29.41,NNW,341,2.2,4.9,67,0.00,,,0.00,VWS V14.01,2013-07-08 12:22:00,
2013-07-08 08:27:00,75.4,63.2,29.41,WNW,287,0.0,3.1,66,0.00,,,0.00,VWS V14.01,2013-07-08 12:27:00,
2013-07-08 08:32:00,75.0,62.5,29.41,NW,308,0.0,2.2,65,0.00,,,0.00,VWS V14.01,2013-07-08 12:32:00,
2013-07-08 08:37:00,75.0,62.0,29.41,North,353,0.0,0.0,64,0.00,,,0.00,VWS V14.01,2013-07-08 12:37:00,
2013-07-08 08:42:00,75.0,61.6,29.41,NNE,29,2.7,2.7,63,0.00,,,0.00,VWS V14.01,2013-07-08 12:42:00,
2013-07-08 08:47:00,75.2,61.3,29.41,NNW,346,0.0,0.0,62,0.00,,,0.00,VWS V14.01,2013-07-08 12:47:00,
2013-07-08 08:52:00,75.4,61.0,29.41,WSW,247,0.0,2.2,61,0.00,,,0.00,VWS V14.01,2013-07-08 12:52:00,
2013-07-08 08:57:00,75.2,60.4,29.41,NNW,344,0.0,0.0,60,0.00,,,0.00,VWS V14.01,2013-07-08 12:57:00,
2013-07-08 09:02:00,75.4,60.1,29.41,North,357,0.0,0.0,59,0.00,,,0.00,VWS V14.01,2013-07-08 13:02:00,
2013-07-08 09:07:00,75.4,60.1,29.41,SE,125,0.0,0.0,59,0.00,,,0.00,VWS V14.01,2013-07-08 13:07:00,
2013-07-08 09:12:00,75.7,59.9,29.41,NNW,340,0.0,3.6,58,0.00,,,0.00,VWS V14.01,2013-07-08 13:12:00,
2013-07-08 09:17:00,75.9,60.1,29.41,WNW,287,0.0,0.0,58,0.00,,,0.00,VWS V14.01,2013-07-08 13:17:00,
2013-07-08 09:22:00,76.1,59.8,29.41,NW,317,0.0,0.0,57,0.00,,,0.00,VWS V14.01,2013-07-08 13:22:00,
2013-07-08 09:27:00,76.8,60.5,29.41,NNW,337,0.0,0.0,57,0.00,,,0.00,VWS V14.01,2013-07-08 13:27:00,
2013-07-08 09:32:00,77.4,60.5,29.41,NW,319,0.0,0.0,56,0.00,,,0.00,VWS V14.01,2013-07-08 13:32:00,
2013-07-08 09:37:00,77.4,60.0,29.41,West,268,0.0,0.0,55,0.00,,,0.00,VWS V14.01,2013-07-08 13:37:00,
2013-07-08 09:42:00,78.6,61.1,29.41,East,100,0.0,0.0,55,0.00,,,0.00,VWS V14.01,2013-07-08 13:42:00,
2013-07-08 09:47:00,79.7,61.6,29.41,NW,318,0.0,0.0,54,0.00,,,0.00,VWS V14.01,2013-07-08 13:47:00,
2013-07-08 09:52:00,80.6,60.8,29.41,ESE,108,2.2,2.2,51,0.00,,,0.00,VWS V14.01,2013-07-08 13:52:00,
2013-07-08 09:57:00,81.1,59.6,29.41,WNW,303,0.0,2.7,48,0.00,,,0.00,VWS V14.01,2013-07-08 13:57:00,
2013-07-08 10:02:00,82.0,59.2,29.41,NW,316,3.1,3.6,46,0.00,,,0.00,VWS V14.01,2013-07-08 14:02:00,
2013-07-08 10:07:00,82.8,58.0,29.41,ENE,74,0.0,4.0,43,0.00,,,0.00,VWS V14.01,2013-07-08 14:07:00,
2013-07-08 10:12:00,84.0,58.5,29.41,West,271,0.0,0.0,42,0.00,,,0.00,VWS V14.01,2013-07-08 14:12:00,
2013-07-08 10:17:00,84.0,56.4,29.41,North,1,0.0,7.2,39,0.00,,,0.00,VWS V14.01,2013-07-08 14:17:00,
2013-07-08 10:22:00,84.0,54.2,29.41,NE,39,0.0,0.0,36,0.00,,,0.00,VWS V14.01,2013-07-08 14:22:00,
2013-07-08 10:27:00,83.8,53.3,29.41,NNW,332,0.0,0.0,35,0.00,,,0.00,VWS V14.01,2013-07-08 14:27:00,
2013-07-08 10:32:00,83.3,50.4,29.41,NE,44,0.0,2.7,32,0.00,,,0.00,VWS V14.01,2013-07-08 14:32:00,
2013-07-08 10:37:00,82.8,49.1,29.41,NW,317,0.0,0.0,31,0.00,,,0.00,VWS V14.01,2013-07-08 14:37:00,
2013-07-08 10:42:00,82.6,49.8,29.41,NW,326,2.7,2.7,32,0.00,,,0.00,VWS V14.01,2013-07-08 14:42:00,
2013-07-08 10:47:00,82.6,49.8,29.41,NW,317,3.6,4.0,32,0.00,,,0.00,VWS V14.01,2013-07-08 14:47:00,
2013-07-08 10:52:00,82.4,48.8,29.41,NNW,338,4.0,4.0,31,0.00,,,0.00,VWS V14.01,2013-07-08 14:52:00,
2013-07-08 10:57:00,82.0,48.5,29.41,NNE,33,0.0,0.0,31,0.00,,,0.00,VWS V14.01,2013-07-08 14:57:00,
2013-07-08 11:02:00,82.2,49.5,29.41,NW,306,2.2,2.7,32,0.00,,,0.00,VWS V14.01,2013-07-08 15:02:00,
2013-07-08 11:07:00,82.6,48.9,29.41,NNW,343,0.0,4.0,31,0.00,,,0.00,VWS V14.01,2013-07-08 15:07:00,
2013-07-08 11:12:00,82.0,47.6,29.41,NNW,340,0.0,0.0,30,0.00,,,0.00,VWS V14.01,2013-07-08 15:12:00,
2013-07-08 11:17:00,81.9,47.4,29.41,East,88,0.0,0.0,30,0.00,,,0.00,VWS V14.01,2013-07-08 15:17:00,
2013-07-08 11:22:00,82.4,47.9,29.41,NNE,32,2.7,4.0,30,0.00,,,0.00,VWS V14.01,2013-07-08 15:22:00,
2013-07-08 11:27:00,82.4,47.0,29.41,East,79,0.0,0.0,29,0.00,,,0.00,VWS V14.01,2013-07-08 15:27:00,
2013-07-08 11:32:00,82.9,48.3,29.41,NW,307,2.2,2.2,30,0.00,,,0.00,VWS V14.01,2013-07-08 15:32:00,
2013-07-08 11:37:00,83.1,48.5,29.41,NW,312,3.6,4.9,30,0.00,,,0.00,VWS V14.01,2013-07-08 15:37:00,
2013-07-08 11:42:00,82.8,47.3,29.41,WSW,253,5.8,5.8,29,0.00,,,0.00,VWS V14.01,2013-07-08 15:42:00,
2013-07-08 11:47:00,82.4,47.0,29.41,NNW,330,0.0,2.7,29,0.00,,,0.00,VWS V14.01,2013-07-08 15:47:00,
2013-07-08 11:52:00,82.2,46.8,29.41,West,279,0.0,0.0,29,0.00,,,0.00,VWS V14.01,2013-07-08 15:52:00,
2013-07-08 11:57:00,81.9,46.5,29.41,NNW,348,4.9,6.3,29,0.00,,,0.00,VWS V14.01,2013-07-08 15:57:00,
2013-07-08 12:02:00,82.0,47.6,29.41,NE,54,3.6,4.9,30,0.00,,,0.00,VWS V14.01,2013-07-08 16:02:00,
2013-07-08 12:08:00,82.0,45.8,29.41,WNW,294,4.9,4.9,28,0.00,,,0.00,VWS V14.01,2013-07-08 16:08:00,
2013-07-08 12:13:00,82.6,48.0,29.41,NW,311,4.0,4.0,30,0.00,,,0.00,VWS V14.01,2013-07-08 16:13:00,
2013-07-08 12:18:00,82.8,47.3,29.41,NNW,340,2.7,6.3,29,0.00,,,0.00,VWS V14.01,2013-07-08 16:18:00,
2013-07-08 12:23:00,82.4,46.1,29.41,North,350,2.2,3.6,28,0.00,,,0.00,VWS V14.01,2013-07-08 16:23:00,
2013-07-08 12:28:00,82.6,47.1,29.41,NNW,343,4.5,4.5,29,0.00,,,0.00,VWS V14.01,2013-07-08 16:28:00,
2013-07-08 12:33:00,83.1,47.6,29.41,SE,127,3.1,3.6,29,0.00,,,0.00,VWS V14.01,2013-07-08 16:33:00,
2013-07-08 12:38:00,83.8,48.2,29.41,NNW,336,0.0,0.0,29,0.00,,,0.00,VWS V14.01,2013-07-08 16:38:00,
2013-07-08 12:43:00,84.6,47.9,29.41,NW,317,0.0,4.9,28,0.00,,,0.00,VWS V14.01,2013-07-08 16:43:00,
2013-07-08 12:48:00,84.2,45.6,29.41,East,93,0.0,0.0,26,0.00,,,0.00,VWS V14.01,2013-07-08 16:48:00,
2013-07-08 12:53:00,84.6,46.9,29.41,SE,132,2.2,4.9,27,0.00,,,0.00,VWS V14.01,2013-07-08 16:53:00,
2013-07-08 12:58:00,85.3,47.5,29.41,NE,35,4.9,4.9,27,0.00,,,0.00,VWS V14.01,2013-07-08 16:58:00,
2013-07-08 13:03:00,85.5,47.7,29.41,East,100,0.0,0.0,27,0.00,,,0.00,VWS V14.01,2013-07-08 17:03:00,
2013-07-08 13:08:00,86.0,48.2,29.41,ESE,113,0.0,0.0,27,0.00,,,0.00,VWS V14.01,2013-07-08 17:08:00,
2013-07-08 13:13:00,86.2,46.3,29.41,SE,124,0.0,0.0,25,0.00,,,0.00,VWS V14.01,2013-07-08 17:13:00,
2013-07-08 13:18:00,85.8,44.9,29.41,NNW,341,2.7,4.0,24,0.00,,,0.00,VWS V14.01,2013-07-08 17:18:00,
2013-07-08 13:23:00,85.1,43.2,29.41,NW,317,4.0,4.0,23,0.00,,,0.00,VWS V14.01,2013-07-08 17:23:00,
2013-07-08 13:28:00,84.9,45.2,29.41,NNW,348,4.9,4.9,25,0.00,,,0.00,VWS V14.01,2013-07-08 17:28:00,
2013-07-08 13:33:00,85.6,48.8,29.41,NNE,16,5.8,5.8,28,0.00,,,0.00,VWS V14.01,2013-07-08 17:33:00,
2013-07-08 13:38:00,85.1,45.4,29.41,NW,310,3.1,3.1,25,0.00,,,0.00,VWS V14.01,2013-07-08 17:38:00,
2013-07-08 13:43:00,84.7,45.1,29.41,NW,316,0.0,0.0,25,0.00,,,0.00,VWS V14.01,2013-07-08 17:43:00,
2013-07-08 13:49:00,84.9,45.2,29.38,ENE,74,2.7,3.1,25,0.00,,,0.00,VWS V14.01,2013-07-08 17:49:00,
2013-07-08 13:54:00,84.9,44.1,29.38,NNW,344,5.4,5.8,24,0.00,,,0.00,VWS V14.01,2013-07-08 17:54:00,
2013-07-08 13:59:00,84.9,44.1,29.38,WSW,242,4.9,4.9,24,0.00,,,0.00,VWS V14.01,2013-07-08 17:59:00,
2013-07-08 14:04:00,85.1,44.3,29.38,NW,306,3.1,5.8,24,0.00,,,0.00,VWS V14.01,2013-07-08 18:04:00,
2013-07-08 14:09:00,85.3,44.4,29.38,North,353,3.1,5.8,24,0.00,,,0.00,VWS V14.01,2013-07-08 18:09:00,
2013-07-08 14:14:00,85.3,43.3,29.38,North,353,2.7,4.0,23,0.00,,,0.00,VWS V14.01,2013-07-08 18:14:00,
2013-07-08 14:19:00,85.5,44.6,29.38,ESE,109,2.7,3.6,24,0.00,,,0.00,VWS V14.01,2013-07-08 18:19:00,
2013-07-08 14:24:00,86.0,43.9,29.38,NNW,338,2.2,4.0,23,0.00,,,0.00,VWS V14.01,2013-07-08 18:24:00,
2013-07-08 14:29:00,86.5,43.2,29.38,NE,44,5.4,5.4,22,0.00,,,0.00,VWS V14.01,2013-07-08 18:29:00,
2013-07-08 14:34:00,86.5,43.2,29.38,NNW,342,2.7,2.7,22,0.00,,,0.00,VWS V14.01,2013-07-08 18:34:00,
2013-07-08 14:39:00,86.5,43.2,29.38,North,1,4.9,6.7,22,0.00,,,0.00,VWS V14.01,2013-07-08 18:39:00,
2013-07-08 14:44:00,86.7,43.4,29.38,East,84,3.1,4.0,22,0.00,,,0.00,VWS V14.01,2013-07-08 18:44:00,
2013-07-08 14:50:00,87.1,42.5,29.38,WNW,303,3.6,5.8,21,0.00,,,0.00,VWS V14.01,2013-07-08 18:50:00,
2013-07-08 14:55:00,87.1,42.5,29.38,North,7,0.0,0.0,21,0.00,,,0.00,VWS V14.01,2013-07-08 18:55:00,
2013-07-08 15:00:00,87.1,42.5,29.38,West,259,0.0,0.0,21,0.00,,,0.00,VWS V14.01,2013-07-08 19:00:00,
2013-07-08 15:05:00,87.4,44.0,29.38,North,1,4.0,4.0,22,0.00,,,0.00,VWS V14.01,2013-07-08 19:05:00,
2013-07-08 15:10:00,87.8,43.0,29.38,ESE,107,2.2,3.6,21,0.00,,,0.00,VWS V14.01,2013-07-08 19:10:00,
2013-07-08 15:15:00,87.8,43.0,29.38,NNE,33,3.6,4.0,21,0.00,,,0.00,VWS V14.01,2013-07-08 19:15:00,
2013-07-08 15:21:00,87.1,41.2,29.35,NNW,330,2.2,3.1,20,0.00,,,0.00,VWS V14.01,2013-07-08 19:21:00,
2013-07-08 15:26:00,86.4,40.6,29.35,NNW,335,0.0,3.1,20,0.00,,,0.00,VWS V14.01,2013-07-08 19:26:00,
2013-07-08 15:31:00,86.0,41.6,29.35,North,349,0.0,0.0,21,0.00,,,0.00,VWS V14.01,2013-07-08 19:31:00,
2013-07-08 15:36:00,86.0,41.6,29.35,NE,47,0.0,0.0,21,0.00,,,0.00,VWS V14.01,2013-07-08 19:36:00,
2013-07-08 15:41:00,86.4,43.1,29.35,ESE,123,2.7,4.0,22,0.00,,,0.00,VWS V14.01,2013-07-08 19:41:00,
2013-07-08 15:46:00,85.8,41.4,29.35,NW,310,2.2,2.2,21,0.00,,,0.00,VWS V14.01,2013-07-08 19:46:00,
2013-07-08 15:51:00,85.5,42.3,29.35,NNW,338,0.0,3.6,22,0.00,,,0.00,VWS V14.01,2013-07-08 19:51:00,
2013-07-08 15:57:00,85.3,42.2,29.35,North,353,2.7,2.7,22,0.00,,,0.00,VWS V14.01,2013-07-08 19:57:00,
2013-07-08 16:02:00,84.9,41.9,29.35,North,8,0.0,4.5,22,0.00,,,0.00,VWS V14.01,2013-07-08 20:02:00,
2013-07-08 16:07:00,84.9,43.0,29.35,East,99,0.0,0.0,23,0.00,,,0.00,VWS V14.01,2013-07-08 20:07:00,
2013-07-08 16:12:00,84.9,41.9,29.35,NNE,31,0.0,0.0,22,0.00,,,0.00,VWS V14.01,2013-07-08 20:12:00,
2013-07-08 16:17:00,84.6,41.6,29.35,NW,307,0.0,2.2,22,0.00,,,0.00,VWS V14.01,2013-07-08 20:17:00,
2013-07-08 16:22:00,84.2,41.3,29.35,NNW,328,0.0,0.0,22,0.00,,,0.00,VWS V14.01,2013-07-08 20:22:00,
2013-07-08 16:27:00,84.6,42.7,29.35,NNW,342,0.0,0.0,23,0.00,,,0.00,VWS V14.01,2013-07-08 20:27:00,
2013-07-08 16:32:00,84.9,41.9,29.35,ESE,102,2.7,2.7,22,0.00,,,0.00,VWS V14.01,2013-07-08 20:32:00,
2013-07-08 16:38:00,85.6,42.5,29.35,North,353,0.0,4.9,22,0.00,,,0.00,VWS V14.01,2013-07-08 20:38:00,
2013-07-08 16:43:00,86.2,42.9,29.35,North,8,0.0,0.0,22,0.00,,,0.00,VWS V14.01,2013-07-08 20:43:00,
2013-07-08 16:48:00,87.1,43.7,29.35,NNE,32,0.0,0.0,22,0.00,,,0.00,VWS V14.01,2013-07-08 20:48:00,
2013-07-08 16:53:00,87.6,44.1,29.35,NNW,328,5.4,5.4,22,0.00,,,0.00,VWS V14.01,2013-07-08 20:53:00,
2013-07-08 16:58:00,87.8,43.0,29.35,NNW,329,4.0,4.0,21,0.00,,,0.00,VWS V14.01,2013-07-08 20:58:00,
2013-07-08 17:03:00,88.2,43.3,29.35,West,260,0.0,2.7,21,0.00,,,0.00,VWS V14.01,2013-07-08 21:03:00,
2013-07-08 17:08:00,87.8,40.5,29.35,NW,320,3.1,3.6,19,0.00,,,0.00,VWS V14.01,2013-07-08 21:08:00,
2013-07-08 17:13:00,87.1,41.2,29.35,North,0,2.2,2.7,20,0.00,,,0.00,VWS V14.01,2013-07-08 21:13:00,
2013-07-08 17:19:00,86.4,40.6,29.35,North,350,0.0,0.0,20,0.00,,,0.00,VWS V14.01,2013-07-08 21:19:00,
2013-07-08 17:24:00,86.4,40.6,29.35,NNW,331,0.0,0.0,20,0.00,,,0.00,VWS V14.01,2013-07-08 21:24:00,
2013-07-08 17:29:00,87.3,42.6,29.35,NNW,340,2.7,3.6,21,0.00,,,0.00,VWS V14.01,2013-07-08 21:29:00,
2013-07-08 17:35:00,87.8,41.8,29.35,NW,311,5.8,6.3,20,0.00,,,0.00,VWS V14.01,2013-07-08 21:35:00,
2013-07-08 17:40:00,87.8,40.5,29.35,North,353,0.0,5.4,19,0.00,,,0.00,VWS V14.01,2013-07-08 21:40:00,
2013-07-08 17:45:00,88.2,42.1,29.35,SSW,210,0.0,0.0,20,0.00,,,0.00,VWS V14.01,2013-07-08 21:45:00,
2013-07-08 17:50:00,88.3,42.2,29.35,NNW,345,3.1,5.4,20,0.00,,,0.00,VWS V14.01,2013-07-08 21:50:00,
2013-07-08 17:55:00,88.2,40.8,29.35,NNE,15,2.7,6.3,19,0.00,,,0.00,VWS V14.01,2013-07-08 21:55:00,
2013-07-08 18:00:00,87.6,40.3,29.35,NNE,24,2.7,3.6,19,0.00,,,0.00,VWS V14.01,2013-07-08 22:00:00,
2013-07-08 18:06:00,87.6,40.3,29.35,North,5,2.7,2.7,19,0.00,,,0.00,VWS V14.01,2013-07-08 22:06:00,
2013-07-08 18:11:00,87.3,40.0,29.35,NW,315,0.0,3.6,19,0.00,,,0.00,VWS V14.01,2013-07-08 22:11:00,
2013-07-08 18:16:00,87.1,39.9,29.35,NW,323,0.0,0.0,19,0.00,,,0.00,VWS V14.01,2013-07-08 22:16:00,
2013-07-08 18:21:00,86.9,41.0,29.35,SE,129,2.7,2.7,20,0.00,,,0.00,VWS V14.01,2013-07-08 22:21:00,
2013-07-08 18:26:00,87.1,41.2,29.35,West,281,2.7,5.4,20,0.00,,,0.00,VWS V14.01,2013-07-08 22:26:00,
2013-07-08 18:31:00,87.1,41.2,29.35,NNW,346,0.0,2.7,20,0.00,,,0.00,VWS V14.01,2013-07-08 22:31:00,
2013-07-08 18:37:00,87.1,41.2,29.35,West,274,0.0,2.7,20,0.00,,,0.00,VWS V14.01,2013-07-08 22:37:00,
2013-07-08 18:42:00,86.9,41.0,29.35,NW,324,4.9,5.4,20,0.00,,,0.00,VWS V14.01,2013-07-08 22:42:00,
2013-07-08 18:48:00,87.3,42.6,29.35,NE,35,2.2,3.1,21,0.00,,,0.00,VWS V14.01,2013-07-08 22:48:00,
2013-07-08 18:53:00,87.6,42.9,29.35,NW,321,0.0,2.7,21,0.00,,,0.00,VWS V14.01,2013-07-08 22:53:00,
2013-07-08 18:58:00,88.0,41.9,29.35,NNW,337,2.2,3.6,20,0.00,,,0.00,VWS V14.01,2013-07-08 22:58:00,
2013-07-08 19:03:00,88.3,42.2,29.35,ENE,68,0.0,0.0,20,0.00,,,0.00,VWS V14.01,2013-07-08 23:03:00,
2013-07-08 19:08:00,88.5,42.4,29.35,SE,135,0.0,0.0,20,0.00,,,0.00,VWS V14.01,2013-07-08 23:08:00,
2013-07-08 19:13:00,88.7,42.5,29.35,SE,128,0.0,0.0,20,0.00,,,0.00,VWS V14.01,2013-07-08 23:13:00,
2013-07-08 19:18:00,88.3,42.2,29.35,North,0,0.0,0.0,20,0.00,,,0.00,VWS V14.01,2013-07-08 23:18:00,
2013-07-08 19:23:00,87.8,41.8,29.35,North,353,0.0,2.7,20,0.00,,,0.00,VWS V14.01,2013-07-08 23:23:00,
2013-07-08 19:28:00,87.8,41.8,29.35,NE,44,0.0,0.0,20,0.00,,,0.00,VWS V14.01,2013-07-08 23:28:00,
2013-07-08 19:34:00,87.4,41.5,29.35,NE,44,0.0,0.0,20,0.00,,,0.00,VWS V14.01,2013-07-08 23:34:00,
2013-07-08 19:39:00,87.1,42.5,29.35,NE,49,0.0,0.0,21,0.00,,,0.00,VWS V14.01,2013-07-08 23:39:00,
2013-07-08 19:44:00,86.4,41.9,29.35,West,265,0.0,0.0,21,0.00,,,0.00,VWS V14.01,2013-07-08 23:44:00,
2013-07-08 19:49:00,85.6,43.6,29.35,NW,307,0.0,0.0,23,0.00,,,0.00,VWS V14.01,2013-07-08 23:49:00,
2013-07-08 19:54:00,85.1,44.3,29.35,East,90,0.0,0.0,24,0.00,,,0.00,VWS V14.01,2013-07-08 23:54:00,
2013-07-08 19:59:00,84.6,44.9,29.35,East,90,0.0,0.0,25,0.00,,,0.00,VWS V14.01,2013-07-08 23:59:00,
2013-07-08 20:05:00,84.0,46.5,29.35,East,90,0.0,0.0,27,0.00,,,0.00,VWS V14.01,2013-07-09 00:05:00,
2013-07-08 20:10:00,83.5,47.0,29.35,East,90,0.0,0.0,28,0.00,,,0.00,VWS V14.01,2013-07-09 00:10:00,
2013-07-08 20:16:00,83.1,47.6,29.35,East,90,0.0,0.0,29,0.00,,,0.00,VWS V14.01,2013-07-09 00:16:00,
2013-07-08 20:21:00,82.6,47.1,29.35,East,90,0.0,0.0,29,0.00,,,0.00,VWS V14.01,2013-07-09 00:21:00,
2013-07-08 20:26:00,82.0,47.6,29.35,East,90,0.0,0.0,30,0.00,,,0.00,VWS V14.01,2013-07-09 00:26:00,
2013-07-08 20:31:00,81.9,47.4,29.35,East,90,0.0,0.0,30,0.00,,,0.00,VWS V14.01,2013-07-09 00:31:00,
2013-07-08 20:37:00,81.3,47.0,29.35,East,90,0.0,0.0,30,0.00,,,0.00,VWS V14.01,2013-07-09 00:37:00,
2013-07-08 20:42:00,81.0,47.5,29.35,WNW,294,0.0,0.0,31,0.00,,,0.00,VWS V14.01,2013-07-09 00:42:00,
2013-07-08 20:47:00,80.8,47.4,29.35,East,92,0.0,0.0,31,0.00,,,0.00,VWS V14.01,2013-07-09 00:47:00,
2013-07-08 20:52:00,80.4,47.9,29.38,East,82,0.0,0.0,32,0.00,,,0.00,VWS V14.01,2013-07-09 00:52:00,
2013-07-08 20:58:00,80.1,48.4,29.38,North,0,0.0,0.0,33,0.00,,,0.00,VWS V14.01,2013-07-09 00:58:00,
2013-07-08 21:03:00,79.9,48.2,29.38,North,0,0.0,0.0,33,0.00,,,0.00,VWS V14.01,2013-07-09 01:03:00,
2013-07-08 21:08:00,79.7,48.9,29.38,North,2,0.0,0.0,34,0.00,,,0.00,VWS V14.01,2013-07-09 01:08:00,
2013-07-08 21:13:00,79.5,48.7,29.38,SW,234,0.0,0.0,34,0.00,,,0.00,VWS V14.01,2013-07-09 01:13:00,
2013-07-08 21:18:00,79.3,48.6,29.38,North,357,0.0,0.0,34,0.00,,,0.00,VWS V14.01,2013-07-09 01:18:00,
2013-07-08 21:23:00,79.2,49.2,29.38,North,353,0.0,0.0,35,0.00,,,0.00,VWS V14.01,2013-07-09 01:23:00,
2013-07-08 21:29:00,78.8,48.9,29.38,NNW,344,0.0,0.0,35,0.00,,,0.00,VWS V14.01,2013-07-09 01:29:00,
2013-07-08 21:34:00,78.6,49.5,29.38,North,357,0.0,0.0,36,0.00,,,0.00,VWS V14.01,2013-07-09 01:34:00,
2013-07-08 21:39:00,78.4,50.0,29.38,East,96,0.0,0.0,37,0.00,,,0.00,VWS V14.01,2013-07-09 01:39:00,
2013-07-08 21:44:00,78.3,49.9,29.38,NE,43,0.0,0.0,37,0.00,,,0.00,VWS V14.01,2013-07-09 01:44:00,
2013-07-08 21:49:00,78.1,49.7,29.38,NE,43,0.0,0.0,37,0.00,,,0.00,VWS V14.01,2013-07-09 01:49:00,
2013-07-08 21:54:00,77.9,50.3,29.38,NE,43,0.0,0.0,38,0.00,,,0.00,VWS V14.01,2013-07-09 01:54:00,
2013-07-08 22:00:00,77.9,50.3,29.38,NE,43,0.0,0.0,38,0.00,,,0.00,VWS V14.01,2013-07-09 02:00:00,
2013-07-08 22:05:00,77.5,50.0,29.38,NE,43,0.0,0.0,38,0.00,,,0.00,VWS V14.01,2013-07-09 02:05:00,
2013-07-08 22:10:00,77.4,50.5,29.38,NE,43,0.0,0.0,39,0.00,,,0.00,VWS V14.01,2013-07-09 02:10:00,
2013-07-08 22:15:00,77.4,50.5,29.38,NE,43,0.0,0.0,39,0.00,,,0.00,VWS V14.01,2013-07-09 02:15:00,
2013-07-08 22:20:00,77.2,50.3,29.38,NE,43,0.0,0.0,39,0.00,,,0.00,VWS V14.01,2013-07-09 02:20:00,
2013-07-08 22:26:00,77.0,50.9,29.38,NE,43,0.0,0.0,40,0.00,,,0.00,VWS V14.01,2013-07-09 02:26:00,
2013-07-08 22:31:00,77.0,50.9,29.38,NE,43,0.0,0.0,40,0.00,,,0.00,VWS V14.01,2013-07-09 02:31:00,
2013-07-08 22:36:00,76.8,51.4,29.38,NE,43,0.0,0.0,41,0.00,,,0.00,VWS V14.01,2013-07-09 02:36:00,
2013-07-08 22:41:00,76.6,51.2,29.38,NE,43,0.0,0.0,41,0.00,,,0.00,VWS V14.01,2013-07-09 02:41:00,
2013-07-08 22:46:00,76.3,50.9,29.38,NE,43,0.0,0.0,41,0.00,,,0.00,VWS V14.01,2013-07-09 02:46:00,
2013-07-08 22:51:00,76.1,50.7,29.38,NE,43,0.0,0.0,41,0.00,,,0.00,VWS V14.01,2013-07-09 02:51:00,
2013-07-08 22:56:00,75.7,51.0,29.38,NNE,26,0.0,0.0,42,0.00,,,0.00,VWS V14.01,2013-07-09 02:56:00,
2013-07-08 23:01:00,75.7,51.0,29.38,NNE,17,0.0,0.0,42,0.00,,,0.00,VWS V14.01,2013-07-09 03:01:00,
2013-07-08 23:06:00,75.6,50.9,29.38,North,5,0.0,0.0,42,0.00,,,0.00,VWS V14.01,2013-07-09 03:06:00,
2013-07-08 23:11:00,75.4,51.3,29.38,NNE,28,0.0,0.0,43,0.00,,,0.00,VWS V14.01,2013-07-09 03:11:00,
2013-07-08 23:17:00,75.4,51.3,29.38,ENE,67,0.0,0.0,43,0.00,,,0.00,VWS V14.01,2013-07-09 03:17:00,
2013-07-08 23:22:00,75.4,51.3,29.38,North,0,0.0,0.0,43,0.00,,,0.00,VWS V14.01,2013-07-09 03:22:00,
2013-07-08 23:27:00,75.2,51.2,29.38,NNW,342,0.0,2.7,43,0.00,,,0.00,VWS V14.01,2013-07-09 03:27:00,
2013-07-08 23:32:00,75.0,51.7,29.38,NNW,344,0.0,0.0,44,0.00,,,0.00,VWS V14.01,2013-07-09 03:32:00,
2013-07-08 23:37:00,75.0,51.7,29.38,NNW,340,0.0,0.0,44,0.00,,,0.00,VWS V14.01,2013-07-09 03:37:00,
2013-07-08 23:42:00,75.0,52.3,29.38,NNW,338,0.0,2.7,45,0.00,,,0.00,VWS V14.01,2013-07-09 03:42:00,
2013-07-08 23:47:00,75.0,52.3,29.38,NNW,339,0.0,0.0,45,0.00,,,0.00,VWS V14.01,2013-07-09 03:47:00,
2013-07-08 23:52:00,75.0,52.3,29.38,NW,324,0.0,0.0,45,0.00,,,0.00,VWS V14.01,2013-07-09 03:52:00,